This demonstration page uses our WeatherBlox Daily Observations layout. Learn more.

39.01783, -85.05884

Hourly Observations for August 6, 2019

Temp ( °F °C ) Dew Point ( °F °C ) Humidity (%) Winds ( mph kmh ) Pressure ( in mb ) Visibility ( mi km ) Precip ( " mm )
12:52 am 00:52 Mostly Clear 72 22.2 63 17.2 73 73 Calm 29.88 1012 10 16.09344 0 0
1:52 am 01:52 Mostly Clear 73 22.8 63 17.2 71 71 SW 7 11 29.88 1012 10 16.09344 0 0
2:52 am 02:52 Mostly Clear 68 20 64 17.8 87 87 SSW 5 7 29.85 1011 10 16.09344 0 0
3:52 am 03:52 Mostly Cloudy 69 20.6 64 17.8 84 84 S 5 7 29.85 1011 10 16.09344 0 0
4:52 am 04:52 Partly Cloudy 69 20.6 64 17.8 84 84 SW 3 6 29.85 1011 10 16.09344 0 0
5:52 am 05:52 Clear 67 19.4 64 17.8 91 91 SSW 6 9 29.85 1011 9 14.484096 0 0
6:52 am 06:52 Mostly Sunny 68 20 64 17.8 87 87 SSW 3 6 29.88 1012 7 11.265408 0 0
7:52 am 07:52 Mostly Sunny 70 21.1 65 18.3 84 84 SSW 6 9 29.85 1011 9 14.484096 0 0
8:52 am 08:52 Partly Cloudy 75 23.9 64 17.8 69 69 SSW 9 15 29.85 1011 10 16.09344 0 0
9:52 am 09:52 Partly Cloudy 77 25 65 18.3 66 66 SSW 8 13 29.83 1010 10 16.09344 0 0
10:52 am 10:52 Mostly Sunny 82 27.8 66 18.9 58 58 SW 10 17 29.85 1011 10 16.09344 0 0
11:52 am 11:52 Cloudy 81 27.2 67 19.4 62 62 SW 8 13 29.85 1011 10 16.09344 0 0
12:52 pm 12:52 Mostly Cloudy 83 28.3 67 19.4 59 59 SW 13 20 29.83 1010 10 16.09344 0 0
1:52 pm 13:52 Mostly Cloudy 84 28.9 68 20 59 59 WSW 9 15 29.83 1010 10 16.09344 0 0
2:48 pm 14:48 Mostly Cloudy with Nearby Thunderstorms 90 32 64 18 43 43 SW 15 24 29.77 1008 10 16.09344 0 0
2:52 pm 14:52 Mostly Cloudy with Nearby Thunderstorms 87 30.6 65 18.3 48 48 SW 13 20 29.8 1009 10 16.09344 0 0
3:07 pm 15:07 Mostly Cloudy 88 31.1 65 18.3 46 46 WSW 13 20 29.77 1008 10 16.09344 0 0
3:23 pm 15:23 Mostly Cloudy with Heavy Rain 81 27.2 68 20 65 65 WSW 13 20 29.8 1009 2 3.218688 0.001 0.001
3:28 pm 15:28 Mostly Cloudy with Light Rain 78 25.6 69 20.6 74 74 VRB 6 9 29.77 1008 7 11.265408 0.11 2.794
3:32 pm 15:32 Mostly Cloudy with Thunderstorms 80 26.7 71 21.7 74 74 SW 6 9 29.77 1008 9 14.484096 0.11 2.794
3:52 pm 15:52 Cloudy with Thunderstorms 82 27.8 70 21.1 67 67 W 6 9 29.8 1009 10 16.09344 0.11 2.794
4:08 pm 16:08 Cloudy 83 28.3 70 21.1 65 65 SSW 10 17 29.77 1008 10 16.09344 0 0
4:24 pm 16:24 Cloudy with Light Thunderstorms 79 26.1 67 19.4 67 67 WSW 5 7 29.77 1008 6 9.656064 0.001 0.001
4:34 pm 16:34 Cloudy with Heavy Thunderstorms 76 24.4 67 19.4 74 74 SW 16 26 29.8 1009 2 3.218688 0 0
4:41 pm 16:41 Cloudy with Thunderstorms 73 22.8 66 18.9 79 79 SW 14 22 29.8 1009 5 8.04672 0.06 1.524
4:52 pm 16:52 Cloudy with Thunderstorms 75 23.9 67 19.4 76 76 SW 10 17 29.8 1009 9 14.484096 0.07 1.778
5:12 pm 17:12 Cloudy 75 23.9 68 20 79 79 SSW 6 9 29.8 1009 10 16.09344 0 0
5:52 pm 17:52 Cloudy 77 25 69 20.6 77 77 SW 3 6 29.8 1009 10 16.09344 0 0
6:52 pm 18:52 Mostly Cloudy 79 26.1 68 20 69 69 SW 9 15 29.77 1008 10 16.09344 0 0
7:52 pm 19:52 Mostly Cloudy 78 25.6 69 20.6 74 74 SW 8 13 29.77 1008 10 16.09344 0 0
8:52 pm 20:52 Cloudy 76 24.4 69 20.6 79 79 W 3 6 29.77 1008 10 16.09344 0 0
9:33 pm 21:33 Cloudy with Light Thunderstorms 75 23.9 69 20.6 82 82 W 5 7 29.77 1008 10 16.09344 0.001 0.001
9:52 pm 21:52 Cloudy with Thunderstorms 76 24.4 68 20 77 77 Calm 29.77 1008 10 16.09344 0.001 0.001
10:17 pm 22:17 Cloudy 76 24.4 68 20 77 77 S 3 6 29.8 1009 10 16.09344 0 0
10:52 pm 22:52 Cloudy 75 23.9 69 20.6 82 82 Calm 29.77 1008 10 16.09344 0 0
11:04 pm 23:04 Cloudy with Thunderstorms 74 23.3 69 20.6 85 85 SSW 6 9 29.8 1009 10 16.09344 0 0
11:52 pm 23:52 Cloudy with Thunderstorms 73 22.8 68 20 84 84 Calm 29.77 1008 10 16.09344 0 0

Powered by AerisWeather